Total_Precipitation_Accumulation
1.64 1.74 1.46 1.36 1.33 1.54 1.81 1.77 1.62 1.66 1.74 1.77 1.59 1.49 1.30 0.99 0.86 0.81 0.82 1.12 1.17 1.10 1.14 1.14 1.10 1.03 0.92 0.81 0.73 0.71 0.74 0.74 0.65 0.51 0.43 0.32 0.25 0.25 0.17 0.10 0.07 0.05 0.05
1.60 1.48 1.45 1.44 1.37 1.54 1.59 1.67 1.71 1.84 1.87 1.95 1.68 1.54 1.38 1.22 1.09 1.06 0.98 1.19 1.19 1.08 1.06 1.15 1.14 1.09 1.08 1.00 0.89 0.82 0.77 0.76 0.66 0.53 0.46 0.39 0.31 0.28 0.25 0.20 0.19 0.12 0.08
1.53 1.54 1.45 1.34 1.38 1.48 1.55 1.62 1.66 1.74 1.64 1.69 1.59 1.54 1.47 1.34 1.26 1.16 1.06 1.00 0.91 1.00 1.06 1.07 1.09 1.07 1.09 1.09 1.09 1.01 0.82 0.69 0.60 0.46 0.39 0.39 0.36 0.30 0.26 0.25 0.26 0.22 0.17
1.28 1.33 1.22 1.21 1.31 1.23 1.21 1.25 1.24 1.29 1.32 1.44 1.41 1.29 1.26 1.26 1.22 1.18 1.05 0.92 0.86 0.70 0.86 1.08 1.14 1.04 1.10 1.18 1.22 1.23 0.94 0.65 0.50 0.42 0.36 0.32 0.34 0.28 0.21 0.17 0.18 0.23 0.19
0.78 0.82 0.80 0.83 0.90 0.91 0.91 0.88 1.02 1.09 1.14 1.25 1.29 1.11 1.06 1.15 1.15 1.13 1.03 0.85 0.88 0.78 0.67 0.82 1.00 0.95 1.08 1.23 1.35 1.35 1.21 0.90 0.60 0.51 0.46 0.40 0.37 0.29 0.20 0.16 0.16 0.16 0.15
0.61 0.58 0.56 0.58 0.57 0.60 0.66 0.69 0.73 0.83 0.85 0.90 0.92 0.87 0.90 0.84 0.92 0.92 0.82 0.79 0.74 0.63 0.58 0.69 0.90 0.77 0.93 1.10 1.22 1.30 1.33 1.26 0.95 0.69 0.55 0.54 0.55 0.42 0.23 0.18 0.17 0.16 0.14
0.43 0.45 0.41 0.40 0.40 0.39 0.40 0.44 0.51 0.57 0.59 0.68 0.72 0.66 0.62 0.59 0.63 0.62 0.62 0.66 0.61 0.59 0.62 0.66 0.73 0.72 0.66 0.74 0.85 0.98 1.23 1.37 1.26 1.01 0.80 0.66 0.66 0.57 0.33 0.23 0.19 0.19 0.20
0.30 0.30 0.30 0.31 0.31 0.29 0.30 0.33 0.36 0.37 0.40 0.51 0.57 0.58 0.50 0.47 0.46 0.41 0.49 0.46 0.46 0.61 0.64 0.63 0.68 0.76 0.74 0.78 0.64 0.69 1.00 1.25 1.43 1.37 1.17 0.92 0.75 0.60 0.45 0.35 0.26 0.21 0.22
0.22 0.23 0.23 0.24 0.27 0.28 0.29 0.32 0.32 0.33 0.32 0.34 0.44 0.56 0.50 0.41 0.35 0.34 0.37 0.42 0.49 0.56 0.58 0.68 0.68 0.65 0.64 0.74 0.85 0.84 0.89 1.01 1.38 1.62 1.54 1.19 0.85 0.63 0.56 0.52 0.45 0.37 0.29
0.18 0.17 0.17 0.16 0.18 0.23 0.29 0.29 0.34 0.34 0.32 0.26 0.30 0.39 0.44 0.46 0.44 0.37 0.36 0.39 0.49 0.54 0.55 0.56 0.58 0.65 0.75 0.84 0.92 0.94 0.79 0.82 1.10 1.43 1.53 1.38 1.08 0.80 0.66 0.65 0.76 0.73 0.54
0.18 0.18 0.18 0.17 0.15 0.15 0.20 0.23 0.31 0.35 0.36 0.31 0.29 0.33 0.36 0.38 0.41 0.41 0.31 0.31 0.38 0.37 0.41 0.46 0.58 0.62 0.71 0.89 1.07 0.97 0.79 0.72 0.84 1.08 1.24 1.28 1.22 1.01 0.79 0.71 0.91 1.01 0.83
0.18 0.17 0.18 0.19 0.19 0.17 0.15 0.15 0.20 0.27 0.34 0.36 0.32 0.30 0.37 0.39 0.39 0.42 0.31 0.24 0.28 0.25 0.28 0.32 0.43 0.56 0.70 0.83 0.85 0.87 0.87 0.80 0.79 0.87 0.96 1.05 1.12 1.07 0.97 0.96 1.10 1.23 1.22
0.16 0.16 0.16 0.18 0.19 0.20 0.19 0.17 0.16 0.19 0.26 0.32 0.31 0.32 0.34 0.33 0.40 0.41 0.33 0.27 0.30 0.31 0.41 0.40 0.45 0.63 0.69 0.89 0.88 0.89 0.87 0.82 0.69 0.62 0.66 0.73 0.81 0.93 1.02 1.05 1.16 1.26 1.36
0.22 0.21 0.16 0.15 0.17 0.18 0.18 0.18 0.17 0.17 0.21 0.26 0.28 0.38 0.37 0.29 0.36 0.38 0.39 0.44 0.43 0.45 0.52 0.50 0.59 0.83 1.04 1.07 1.06 0.94 0.76 0.72 0.63 0.57 0.49 0.50 0.55 0.65 0.72 0.79 0.89 0.97 1.04
0.23 0.21 0.18 0.15 0.15 0.16 0.17 0.18 0.18 0.20 0.23 0.26 0.31 0.41 0.42 0.39 0.40 0.41 0.45 0.56 0.62 0.53 0.53 0.64 0.76 0.85 0.95 0.96 0.96 0.85 0.68 0.67 0.60 0.53 0.47 0.43 0.42 0.47 0.53 0.55 0.56 0.60 0.64
0.19 0.17 0.16 0.14 0.12 0.13 0.16 0.17 0.18 0.23 0.26 0.32 0.39 0.45 0.51 0.51 0.51 0.51 0.52 0.60 0.73 0.71 0.66 0.67 0.75 0.76 0.76 0.62 0.64 0.64 0.61 0.62 0.55 0.49 0.45 0.42 0.39 0.40 0.41 0.45 0.48 0.48 0.48
0.18 0.16 0.15 0.14 0.13 0.13 0.15 0.18 0.20 0.22 0.25 0.31 0.38 0.44 0.48 0.55 0.62 0.63 0.68 0.70 0.73 0.84 0.78 0.66 0.77 0.86 0.78 0.60 0.51 0.51 0.53 0.53 0.51 0.49 0.46 0.43 0.40 0.38 0.38 0.37 0.41 0.43 0.41
0.15 0.15 0.15 0.13 0.11 0.11 0.14 0.19 0.22 0.22 0.25 0.29 0.36 0.46 0.50 0.51 0.57 0.64 0.76 0.79 0.81 0.93 0.92 0.78 0.85 0.94 0.85 0.74 0.61 0.53 0.44 0.43 0.44 0.48 0.47 0.47 0.45 0.41 0.37 0.35 0.34 0.33 0.33
0.15 0.14 0.15 0.13 0.11 0.10 0.11 0.14 0.19 0.23 0.27 0.29 0.34 0.42 0.50 0.58 0.61 0.65 0.75 0.79 0.85 1.00 1.04 0.96 0.96 1.06 1.09 0.88 0.66 0.51 0.42 0.42 0.39 0.43 0.45 0.47 0.46 0.43 0.38 0.35 0.34 0.30 0.27
0.13 0.14 0.15 0.15 0.14 0.12 0.10 0.10 0.12 0.16 0.21 0.27 0.35 0.39 0.43 0.55 0.64 0.68 0.76 0.88 0.96 1.04 1.12 1.10 1.13 1.24 1.24 1.10 0.84 0.57 0.48 0.45 0.43 0.39 0.42 0.42 0.43 0.41 0.37 0.33 0.31 0.30 0.28
0.11 0.15 0.18 0.18 0.18 0.15 0.10 0.10 0.13 0.13 0.15 0.19 0.26 0.33 0.34 0.39 0.49 0.61 0.69 0.79 0.96 1.12 1.27 1.33 1.34 1.50 1.45 1.25 0.99 0.70 0.58 0.52 0.49 0.46 0.43 0.37 0.35 0.32 0.31 0.30 0.30 0.29 0.28
0.15 0.20 0.22 0.22 0.22 0.15 0.10 0.09 0.10 0.12 0.15 0.18 0.22 0.28 0.29 0.29 0.32 0.38 0.48 0.62 0.77 0.94 1.15 1.33 1.46 1.56 1.61 1.47 1.26 1.02 0.71 0.53 0.48 0.50 0.48 0.46 0.42 0.38 0.33 0.29 0.30 0.28 0.28
0.19 0.25 0.27 0.28 0.28 0.28 0.20 0.13 0.09 0.12 0.15 0.19 0.23 0.26 0.21 0.18 0.26 0.30 0.35 0.42 0.52 0.64 0.79 1.00 1.20 1.31 1.49 1.60 1.46 1.17 0.89 0.69 0.55 0.53 0.51 0.48 0.47 0.45 0.41 0.37 0.39 0.33 0.29
0.24 0.28 0.29 0.31 0.35 0.34 0.25 0.16 0.13 0.14 0.18 0.21 0.24 0.27 0.27 0.25 0.27 0.32 0.37 0.36 0.37 0.40 0.48 0.59 0.76 1.00 1.21 1.42 1.46 1.35 1.25 1.00 0.77 0.63 0.57 0.50 0.44 0.42 0.43 0.41 0.40 0.36 0.33
0.31 0.35 0.38 0.41 0.44 0.43 0.33 0.19 0.15 0.18 0.24 0.25 0.26 0.30 0.34 0.31 0.26 0.22 0.30 0.33 0.32 0.31 0.32 0.40 0.53 0.75 1.00 1.18 1.35 1.34 1.24 1.10 0.89 0.67 0.54 0.48 0.41 0.39 0.39 0.36 0.36 0.37 0.34
0.39 0.42 0.45 0.50 0.55 0.56 0.46 0.25 0.19 0.22 0.30 0.33 0.38 0.40 0.37 0.31 0.27 0.19 0.25 0.30 0.29 0.28 0.31 0.32 0.38 0.51 0.66 0.91 1.11 1.13 1.04 0.96 0.85 0.67 0.50 0.43 0.38 0.37 0.39 0.31 0.26 0.27 0.28